Simultaneous Nadir Overpasses (SNOs) Predictions

Prediction of SNOs between AQUA and NOAA-19 Satellite Orbit:

Table of predicted SNOs for the next 14.0 days since TLE Epoch: 12/23/2016
Index Date (AQUA) Time (AQUA) Lat,Lon (AQUA) SZA (AQUA ) Date (NOAA-19) Time (NOAA-19) Lat,Lon (NOAA-19) SZA (NOAA-19 ) Distance(km) Time Diff (sec)
1 12/23/2016 22:15:02 80.96, 165.54 106.39 12/23/2016 22:14:08 80.95, 165.63 106.40 1.72 54
2 12/23/2016 23:04:28 -80.94, -26.63 73.65 12/23/2016 23:05:11 -80.94, -26.51 73.67 2.14 43
3 12/26/2016 03:48:47 -80.97, -98.02 73.63 12/26/2016 03:48:08 -80.95, -97.91 73.64 2.37 39
4 12/26/2016 04:38:13 80.95, 69.80 106.34 12/26/2016 04:39:03 80.94, 69.98 106.30 3.14 50
5 12/28/2016 09:22:31 80.95, -1.28 106.27 12/28/2016 09:21:59 80.95, -1.25 106.28 0.61 32
6 12/28/2016 10:11:57 -80.94, 166.56 73.77 12/28/2016 10:13:03 -80.94, 166.55 73.79 0.73 66
7 12/30/2016 14:56:15 -80.94, 95.45 73.87 12/30/2016 14:55:59 -80.95, 95.43 73.86 1.02 16
8 12/30/2016 15:45:42 80.95, -97.09 106.16 12/30/2016 15:46:54 80.95, -96.95 106.11 2.64 72
9 01/01/2017 20:30:00 80.96,-168.25 106.02 01/01/2017 20:29:50 80.95,-168.22 106.02 0.96 10
10 01/04/2017 02:03:44 -80.95, -71.59 74.19 01/04/2017 02:03:51 -80.95, -71.77 74.17 3.19 7
11 01/06/2017 06:48:16 -81.29,-147.92 73.62 01/06/2017 06:47:07 -80.96,-150.54 73.52 57.89 69




NCC Satellite Simultaneous Nadir Overpasses (SNOs) Prediction Service
